FW3030 Weather Reports


Display with metric or nautical units.
time (UTC)temp
F
wind
direction
speed
MPH
gust
MPH
rain 1hr
in
rain 24hr
in
rain mn
in
humidity
%
barometer
mb
20260507051558 39 0 0.0 1.0 0.00 0.00 0.00 57 1013.8
20260507050056 40 0 0.0 1.0 0.00 0.00 0.00 57 1013.9
20260507044622 40 0 0.0 1.0 0.00 0.00 0.00 57 1014.0
20260507043059 40 0 0.0 1.0 0.00 0.00 0.00 57 1014.2
20260507041557 40 0 0.0 2.0 0.00 0.00 0.00 56 1014.2
20260507034602 40 0 0.0 3.0 0.00 0.00 0.00 55 1014.4
20260507033124 40 0 0.0 1.0 0.00 0.00 0.00 55 1014.4
20260507031604 41 0 0.0 3.0 0.00 0.00 0.00 54 1014.6
20260507030109 41 290 0.0 1.0 0.00 0.00 0.00 53 1014.5
20260507024609 41 0 0.0 4.0 0.00 0.00 0.00 53 1014.4
20260507023102 41 0 0.0 2.0 0.00 0.00 0.00 53 1014.4
20260507021600 41 0 0.0 2.0 0.00 0.00 0.00 52 1014.3
20260507014605 42 0 0.0 2.0 0.00 0.00 0.00 51 1014.4
20260507013103 42 276 0.0 5.0 0.00 0.00 0.00 51 1014.3
20260507011559 42 319 1.0 4.0 0.00 0.00 0.00 50 1014.5
20260507010059 42 253 1.0 5.0 0.00 0.00 0.00 50 1014.5
20260507004558 43 309 0.0 5.0 0.00 0.00 0.00 49 1014.6
20260507003104 43 292 2.0 7.0 0.00 0.00 0.00 48 1014.6
20260507001602 43 282 2.0 9.0 0.00 0.00 0.00 49 1014.7
20260507000100 43 291 1.0 7.0 0.00 0.00 0.00 49 1014.7
20260506234607 43 292 2.0 8.0 0.00 0.00 0.00 49 1014.8
20260506233059 43 355 3.0 12.0 0.00 0.00 0.00 49 1015.0
20260506231557 43 259 4.0 12.0 0.00 0.00 0.00 48 1015.0
20260506230104 44 231 3.0 11.0 0.00 0.00 0.00 48 1015.0
20260506224602 44 331 2.0 11.0 0.00 0.00 0.00 47 1015.0
20260506223055 44 249 3.0 13.0 0.00 0.00 0.00 47 1014.9
20260506221557 44 209 3.0 9.0 0.00 0.00 0.00 47 1014.9
20260506220101 44 323 4.0 8.0 0.00 0.00 0.00 46 1015.0
20260506214559 45 238 3.0 8.0 0.00 0.00 0.00 46 1015.0
20260506213101 45 259 3.0 10.0 0.00 0.00 0.00 46 1015.2
20260506211558 45 314 1.0 9.0 0.00 0.00 0.00 47 1015.3
20260506210055 45 236 4.0 11.0 0.00 0.00 0.00 46 1015.5
20260506204600 44 267 2.0 6.0 0.00 0.00 0.00 48 1015.7
20260506203059 44 265 3.0 12.0 0.00 0.00 0.00 47 1015.8
20260506201558 44 249 5.0 10.0 0.00 0.00 0.00 46 1015.7
20260506200104 45 257 3.0 10.0 0.00 0.00 0.00 47 1015.7
20260506194559 45 271 6.0 12.0 0.00 0.00 0.00 47 1015.8
20260506193058 44 244 5.0 10.0 0.00 0.00 0.00 47 1015.8
20260506191558 44 290 2.0 9.0 0.00 0.00 0.00 47 1015.8
20260506190058 44 267 3.0 9.0 0.00 0.00 0.00 48 1015.8
20260506184557 44 29 4.0 9.0 0.00 0.00 0.00 49 1015.9
20260506183056 42 350 2.0 8.0 0.00 0.00 0.00 53 1016.2
20260506181559 41 319 2.0 7.0 0.00 0.00 0.00 54 1016.4
20260506180058 41 321 3.0 9.0 0.00 0.00 0.00 54 1016.5
20260506174557 40 0 3.0 11.0 0.00 0.00 0.00 55 1016.5
20260506173130 40 259 2.0 8.0 0.00 0.00 0.00 55 1016.7
20260506171610 40 5 2.0 10.0 0.00 0.00 0.00 56 1016.8
20260506170103 40 360 2.0 8.0 0.00 0.00 0.00 57 1016.8
20260506164607 39 271 3.0 9.0 0.00 0.00 0.00 56 1016.8
20260506163106 39 351 1.0 8.0 0.00 0.00 0.00 58 1016.9
20260506161642 38 0 1.0 8.0 0.00 0.00 0.00 58 1016.8
20260506160111 38 246 2.0 8.0 0.00 0.00 0.00 59 1016.9
20260506154601 37 311 1.0 8.0 0.00 0.00 0.00 61 1017.0
20260506153105 37 286 2.0 8.0 0.00 0.00 0.00 61 1016.8
20260506151603 37 279 3.0 8.0 0.00 0.00 0.00 60 1016.8
20260506144600 37 261 1.0 6.0 0.00 0.00 0.00 63 1016.8
20260506143101 36 360 1.0 7.0 0.00 0.00 0.00 64 1016.9
20260506141559 36 315 2.0 8.0 0.00 0.00 0.00 65 1016.8
20260506140100 35 313 1.0 8.0 0.00 0.00 0.00 66 1016.6
20260506134558 35 5 1.0 4.0 0.00 0.00 0.00 68 1016.5
20260506133057 34 304 2.0 6.0 0.00 0.00 0.00 69 1016.3
20260506131603 34 0 1.0 4.0 0.00 0.00 0.00 70 1016.3
20260506130140 33 0 1.0 6.0 0.00 0.00 0.00 71 1016.2
20260506124601 33 330 0.0 4.0 0.00 0.00 0.00 73 1016.1
20260506123059 32 253 1.0 3.0 0.00 0.00 0.00 74 1016.0
20260506121558 31 279 0.0 3.0 0.00 0.00 0.00 75 1015.8
20260506120108 31 308 0.0 2.0 0.00 0.00 0.00 75 1015.6
20260506114556 30 242 0.0 2.0 0.00 0.00 0.00 75 1015.6
20260506113100 30 0 0.0 3.0 0.00 0.00 0.00 75 1015.3
20260506111557 29 281 0.0 2.0 0.00 0.00 0.00 74 1015.2
20260506110107 29 0 0.0 1.0 0.00 0.00 0.00 73 1015.3
20260506104559 29 0 0.0 1.0 0.00 0.00 0.00 73 1015.2